When you browse on this site, cookies collect data to enhance your experience and personalize the content and advertising you see.
Visit our Privacy Policy to learn more. By continuing to use the site, you agree to this use of cookies and data.
  • In Sweden
  • List of Countries
  • For 7 days
  • Water Temperature
  • Satellite Maps
  • Weather Map
  • Weather Widgets
  • user-avatar
    Login

    Hourly Weather Bregenz

    Today, 17 July, Wednesday

    Time Temperature Precipitation Wind Pressure Humidity
    00:00 +10°C° 0 mm 1 mps 647 mmHg 75%
    01:00 +10°C° 0 mm 1 mps 647 mmHg 77%
    02:00 +10°C° 0 mm 1 mps 646 mmHg 77%
    03:00 +9°C° 0 mm 1 mps 646 mmHg 78%
    04:00 +9°C° 0 mm 1 mps 646 mmHg 78%
    05:00 +11°C° 0 mm 1 mps 646 mmHg 75%
    06:00 +12°C° 0 mm 1 mps 647 mmHg 73%
    07:00 +13°C° 0 mm 1 mps 647 mmHg 71%
    08:00 +15°C° 0 mm 1 mps 647 mmHg 65%
    09:00 +18°C° 0 mm 1 mps 648 mmHg 58%
    10:00 +20°C° 0 mm 1 mps 648 mmHg 52%
    11:00 +21°C° 0 mm 1 mps 648 mmHg 51%
    12:00 +20°C° 0 mm 2 mps 648 mmHg 50%
    13:00 +20°C° 0 mm 2 mps 648 mmHg 49%
    14:00 +20°C° 0.1 mm 2 mps 648 mmHg 51%
    15:00 +20°C° 0.1 mm 2 mps 648 mmHg 53%
    16:00 +20°C° 0.1 mm 2 mps 648 mmHg 55%
    17:00 +20°C° 0.1 mm 1 mps 647 mmHg 60%
    18:00 +18°C° 0.1 mm 1 mps 647 mmHg 66%
    19:00 +16°C° 0.1 mm 1 mps 646 mmHg 72%
    20:00 +15°C° 0 mm 1 mps 646 mmHg 74%
    21:00 +13°C° 0 mm 1 mps 646 mmHg 76%
    22:00 +11°C° 0 mm 1 mps 646 mmHg 78%
    23:00 +11°C° 0 mm 1 mps 645 mmHg 78%

    Tomorrow, 18 July, Thursday

    Time Temperature Precipitation Wind Pressure Humidity
    00:00 +10°C° 0 mm 1 mps 645 mmHg 79%
    01:00 +10°C° 0 mm 1 mps 645 mmHg 80%
    02:00 +10°C° 0 mm 1 mps 645 mmHg 80%
    03:00 +10°C° 0 mm 1 mps 645 mmHg 81%
    04:00 +10°C° 0 mm 1 mps 644 mmHg 81%
    05:00 +11°C° 0 mm 1 mps 645 mmHg 79%
    06:00 +12°C° 0 mm 1 mps 645 mmHg 77%
    07:00 +13°C° 0 mm 1 mps 646 mmHg 75%
    08:00 +14°C° 0.1 mm 1 mps 646 mmHg 71%
    09:00 +16°C° 0.1 mm 1 mps 647 mmHg 66%
    10:00 +18°C° 0.1 mm 1 mps 647 mmHg 62%
    11:00 +18°C° 0.2 mm 2 mps 647 mmHg 60%
    12:00 +18°C° 0.2 mm 2 mps 647 mmHg 58%
    13:00 +19°C° 0.2 mm 2 mps 647 mmHg 55%
    14:00 +19°C° 0.2 mm 2 mps 647 mmHg 55%
    15:00 +20°C° 0.2 mm 1 mps 647 mmHg 55%
    16:00 +20°C° 0.2 mm 1 mps 648 mmHg 55%
    17:00 +19°C° 0.1 mm 1 mps 647 mmHg 62%
    18:00 +18°C° 0.1 mm 1 mps 647 mmHg 69%
    19:00 +15°C° 0.1 mm 0 mps 647 mmHg 75%
    20:00 +14°C° 0 mm 1 mps 647 mmHg 77%
    21:00 +13°C° 0 mm 1 mps 647 mmHg 78%
    22:00 +12°C° 0 mm 1 mps 647 mmHg 80%
    23:00 +11°C° 0 mm 1 mps 647 mmHg 80%

    Day after tomorrow, 19 July, Friday

    Time Temperature Precipitation Wind Pressure Humidity
    00:00 +11°C° 0 mm 1 mps 647 mmHg 80%
    01:00 +11°C° 0 mm 1 mps 647 mmHg 81%
    02:00 +11°C° 0 mm 1 mps 647 mmHg 81%
    03:00 +11°C° 0 mm 1 mps 647 mmHg 82%
    04:00 +10°C° 0 mm 1 mps 647 mmHg 82%
    05:00 +11°C° 0 mm 1 mps 647 mmHg 80%
    06:00 +13°C° 0 mm 1 mps 648 mmHg 79%
    07:00 +13°C° 0 mm 0 mps 648 mmHg 77%
    08:00 +15°C° 0.1 mm 1 mps 648 mmHg 72%
    09:00 +18°C° 0.1 mm 1 mps 649 mmHg 66%
    10:00 +20°C° 0.1 mm 1 mps 649 mmHg 61%
    11:00 +20°C° 0.1 mm 1 mps 649 mmHg 61%
    12:00 +21°C° 0.1 mm 1 mps 649 mmHg 61%
    13:00 +20°C° 0.1 mm 2 mps 649 mmHg 60%
    14:00 +21°C° 0.4 mm 1 mps 649 mmHg 64%
    15:00 +20°C° 0.4 mm 1 mps 649 mmHg 67%
    16:00 +20°C° 0.4 mm 1 mps 649 mmHg 70%
    17:00 +19°C° 0.3 mm 1 mps 649 mmHg 75%
    18:00 +18°C° 0.3 mm 1 mps 649 mmHg 80%
    19:00 +16°C° 0.3 mm 0 mps 649 mmHg 85%
    20:00 +15°C° 0 mm 1 mps 649 mmHg 86%
    21:00 +14°C° 0 mm 1 mps 648 mmHg 88%
    22:00 +12°C° 0 mm 1 mps 648 mmHg 89%
    23:00 +12°C° 0 mm 1 mps 648 mmHg 90%

    20 July, Saturday

    Time Temperature Precipitation Wind Pressure Humidity
    00:00 +12°C° 0 mm 1 mps 648 mmHg 90%
    01:00 +11°C° 0 mm 1 mps 648 mmHg 91%
    02:00 +11°C° 0 mm 1 mps 647 mmHg 91%
    03:00 +11°C° 0 mm 1 mps 647 mmHg 91%
    04:00 +11°C° 0 mm 1 mps 647 mmHg 91%
    05:00 +12°C° 0 mm 1 mps 647 mmHg 89%
    06:00 +13°C° 0 mm 1 mps 648 mmHg 87%
    07:00 +14°C° 0 mm 1 mps 648 mmHg 85%
    08:00 +16°C° 0 mm 1 mps 649 mmHg 76%
    09:00 +20°C° 0 mm 1 mps 650 mmHg 67%
    10:00 +22°C° 0 mm 1 mps 651 mmHg 58%
    11:00 +23°C° 0.2 mm 1 mps 651 mmHg 57%
    12:00 +23°C° 0.2 mm 1 mps 651 mmHg 56%
    13:00 +23°C° 0.2 mm 1 mps 650 mmHg 55%
    14:00 +23°C° 0.6 mm 1 mps 650 mmHg 58%
    15:00 +22°C° 0.6 mm 1 mps 650 mmHg 61%
    16:00 +22°C° 0.6 mm 1 mps 650 mmHg 65%
    17:00 +21°C° 0.3 mm 1 mps 650 mmHg 71%
    18:00 +20°C° 0.3 mm 1 mps 650 mmHg 77%
    19:00 +17°C° 0.3 mm 2 mps 650 mmHg 83%
    20:00 +16°C° 0.3 mm 2 mps 650 mmHg 84%
    21:00 +14°C° 0.3 mm 2 mps 650 mmHg 85%
    22:00 +13°C° 0.3 mm 2 mps 649 mmHg 86%
    23:00 +12°C° 0.1 mm 2 mps 649 mmHg 86%

    21 July, Sunday

    Time Temperature Precipitation Wind Pressure Humidity
    00:00 +12°C° 0.1 mm 2 mps 649 mmHg 86%
    01:00 +12°C° 0.1 mm 2 mps 649 mmHg 86%
    02:00 +12°C° 0 mm 2 mps 649 mmHg 84%
    03:00 +12°C° 0 mm 2 mps 649 mmHg 82%
    04:00 +12°C° 0 mm 2 mps 649 mmHg 81%
    05:00 +13°C° 0.5 mm 1 mps 650 mmHg 81%
    06:00 +14°C° 0.5 mm 1 mps 650 mmHg 82%
    07:00 +15°C° 0.5 mm 1 mps 651 mmHg 82%
    08:00 +16°C° 0.6 mm 1 mps 651 mmHg 81%
    09:00 +18°C° 0.6 mm 1 mps 652 mmHg 80%
    10:00 +18°C° 0.6 mm 1 mps 652 mmHg 79%
    11:00 +19°C° 0.7 mm 1 mps 652 mmHg 76%
    12:00 +20°C° 0.7 mm 1 mps 653 mmHg 74%
    13:00 +20°C° 0.7 mm 2 mps 653 mmHg 71%
    14:00 +21°C° 0.3 mm 1 mps 653 mmHg 70%
    15:00 +21°C° 0.3 mm 1 mps 653 mmHg 68%
    16:00 +22°C° 0.3 mm 1 mps 653 mmHg 67%
    17:00 +21°C° 0.3 mm 1 mps 653 mmHg 73%
    18:00 +18°C° 0.3 mm 0 mps 653 mmHg 79%
    19:00 +17°C° 0.3 mm 0 mps 653 mmHg 86%
    20:00 +16°C° 0.1 mm 0 mps 653 mmHg 87%
    21:00 +14°C° 0.1 mm 0 mps 652 mmHg 89%
    22:00 +14°C° 0.1 mm 1 mps 652 mmHg 91%
    23:00 +13°C° 0 mm 1 mps 652 mmHg 91%

    22 July, Monday

    Time Temperature Precipitation Wind Pressure Humidity
    00:00 +13°C° 0 mm 1 mps 652 mmHg 92%
    01:00 +13°C° 0 mm 1 mps 651 mmHg 92%
    02:00 +12°C° 0 mm 1 mps 651 mmHg 92%
    03:00 +12°C° 0 mm 1 mps 651 mmHg 92%
    04:00 +12°C° 0 mm 1 mps 651 mmHg 92%
    05:00 +13°C° 0 mm 1 mps 651 mmHg 90%
    06:00 +14°C° 0 mm 1 mps 652 mmHg 89%
    07:00 +15°C° 0 mm 1 mps 652 mmHg 87%
    08:00 +18°C° 0 mm 1 mps 652 mmHg 79%
    09:00 +20°C° 0 mm 1 mps 653 mmHg 71%
    10:00 +22°C° 0 mm 1 mps 653 mmHg 63%
    11:00 +23°C° 0.3 mm 1 mps 653 mmHg 61%
    12:00 +24°C° 0.3 mm 1 mps 653 mmHg 59%
    13:00 +25°C° 0.3 mm 1 mps 653 mmHg 57%
    14:00 +25°C° 0.1 mm 1 mps 653 mmHg 56%
    15:00 +25°C° 0.1 mm 1 mps 653 mmHg 55%
    16:00 +25°C° 0.1 mm 2 mps 653 mmHg 53%
    17:00 +23°C° 0.2 mm 1 mps 652 mmHg 64%
    18:00 +22°C° 0.2 mm 1 mps 652 mmHg 74%
    19:00 +20°C° 0.2 mm 1 mps 651 mmHg 85%
    20:00 +19°C° 0 mm 1 mps 651 mmHg 87%
    21:00 +16°C° 0 mm 1 mps 651 mmHg 89%
    22:00 +15°C° 0 mm 1 mps 650 mmHg 90%
    23:00 +15°C° 0 mm 1 mps 650 mmHg 90%
    Show more